"Sample Date","Sample Time","Sample Value","Units","Flow Rate","Sample Interval","Number Channels","Micron Size 0","Counts/Channel 0","Micron Size 1","Counts/Channel 1","Micron Size 2","Counts/Channel 2","Micron Size 3","Counts/Channel 3","Micron Size 4","Counts/Channel 4","Micron Size 5","Counts/Channel 5","Micron Size 6","Counts/Channel 6","Micron Size 7","Counts/Channel 7","Micron Size 8","Counts/Channel 8","Micron Size 9","Counts/Channel 9","Micron Size 10","Counts/Channel 10","Micron Size 11","Counts/Channel 11","Micron Size 12","Counts/Channel 12","Micron Size 13","Counts/Channel 13","Micron Size 14","Counts/Channel 14","Micron Size 15","Counts/Channel 15","Micron Size 16","Counts/Channel 16","Micron Size 17","Counts/Channel 17","Micron Size 18","Counts/Channel 18","Micron Size 19","Counts/Channel 19","Micron Size 20","Counts/Channel 20","Micron Size 21","Counts/Channel 21","Micron Size 22","Counts/Channel 22","Micron Size 23","Counts/Channel 23","Micron Size 24","Counts/Channel 24","Micron Size 25","Counts/Channel 25","Micron Size 26","Counts/Channel 26","Micron Size 27","Counts/Channel 27","Micron Size 28","Counts/Channel 28","Micron Size 29","Counts/Channel 29","Micron Size 30","Counts/Channel 30","Micron Size 31","Counts/Channel 31"
"03/08/08","13:00:02",42043.000,"cc",28288.852,6.00,6,0.100,36063.000,0.200,4572.000,0.300,872.000,0.500,403.000,1.000,133.000,5.000,0
"03/08/08","13:00:08",80033.000,"cc",28319.764,6.00,6,0.100,70541.000,0.200,7855.000,0.300,976.000,0.500,472.000,1.000,189.000,5.000,0
"03/08/08","13:00:14",79521.000,"cc",28339.922,6.00,6,0.100,70446.000,0.200,7525.000,0.300,840.000,0.500,509.000,1.000,201.000,5.000,0
"03/08/08","13:00:20",82623.000,"cc",28281.266,6.00,6,0.100,73376.000,0.200,7758.000,0.300,744.000,0.500,517.000,1.000,228.000,5.000,0
"03/08/08","13:00:26",88807.000,"cc",28354.164,6.00,6,0.100,79242.000,0.200,8127.000,0.300,751.000,0.500,478.000,1.000,209.000,5.000,0
"03/08/08","13:00:32",101486.000,"cc",28238.115,6.00,6,0.100,90919.000,0.200,9391.000,0.300,612.000,0.500,415.000,1.000,149.000,5.000,0
"03/08/08","13:00:38",165712.000,"cc",28302.283,6.00,6,0.100,148371.000,0.200,15801.000,0.300,790.000,0.500,499.000,1.000,251.000,5.000,0
"03/08/08","13:00:44",111512.000,"cc",28356.059,6.00,6,0.100,99495.000,0.200,10571.000,0.300,672.000,0.500,538.000,1.000,236.000,5.000,0
"03/08/08","13:00:50",124069.000,"cc",28338.092,6.00,6,0.100,110609.000,0.200,12133.000,0.300,646.000,0.500,473.000,1.000,208.000,5.000,0
"03/08/08","13:00:56",86190.000,"cc",28278.902,6.00,6,0.100,76769.000,0.200,8290.000,0.300,510.000,0.500,415.000,1.000,206.000,5.000,0
"03/08/08","13:01:02",62306.000,"cc",28356.568,6.00,6,0.100,55143.000,0.200,5879.000,0.300,571.000,0.500,485.000,1.000,228.000,5.000,0
"03/08/08","13:01:08",59754.000,"cc",28319.818,6.00,6,0.100,52998.000,0.200,5631.000,0.300,518.000,0.500,425.000,1.000,182.000,5.000,0
"03/08/08","13:01:14",38077.000,"cc",28297.125,6.00,6,0.100,33474.000,0.200,3730.000,0.300,371.000,0.500,344.000,1.000,158.000,5.000,0
"03/08/08","13:01:20",32132.000,"cc",28355.658,6.00,6,0.100,28013.000,0.200,3231.000,0.300,376.000,0.500,348.000,1.000,164.000,5.000,0
"03/08/08","13:01:26",32784.000,"cc",28384.363,6.00,6,0.100,28561.000,0.200,3317.000,0.300,381.000,0.500,357.000,1.000,168.000,5.000,0
"03/08/08","13:01:32",47798.000,"cc",28348.041,6.00,6,0.100,42391.000,0.200,4628.000,0.300,364.000,0.500,288.000,1.000,127.000,5.000,0
"03/08/08","13:01:38",125849.000,"cc",28207.250,6.00,6,0.100,111618.000,0.200,13055.000,0.300,590.000,0.500,423.000,1.000,163.000,5.000,0
"03/08/08","13:01:44",76020.000,"cc",28316.033,6.00,6,0.100,67623.000,0.200,7396.000,0.300,466.000,0.500,364.000,1.000,171.000,5.000,0
"03/08/08","13:01:50",32954.000,"cc",28287.352,6.00,6,0.100,28688.000,0.200,3323.000,0.300,399.000,0.500,367.000,1.000,177.000,5.000,0
"03/08/08","13:01:56",28991.000,"cc",28339.691,6.00,6,0.100,24793.000,0.200,3020.000,0.300,473.000,0.500,475.000,1.000,230.000,5.000,0
"03/08/08","13:02:02",50177.000,"cc",28275.590,6.00,6,0.100,43799.000,0.200,4948.000,0.300,594.000,0.500,557.000,1.000,279.000,5.000,0
"03/08/08","13:02:08",60543.000,"cc",28329.867,6.00,6,0.100,53230.000,0.200,5946.000,0.300,551.000,0.500,565.000,1.000,251.000,5.000,0
"03/08/08","13:02:14",57501.000,"cc",28314.369,6.00,6,0.100,50545.000,0.200,5622.000,0.300,550.000,0.500,532.000,1.000,252.000,5.000,0
"03/08/08","13:02:20",79365.000,"cc",28289.117,6.00,6,0.100,70769.000,0.200,7450.000,0.300,515.000,0.500,441.000,1.000,190.000,5.000,0
"03/08/08","13:02:26",339292.000,"cc",28311.133,6.00,6,0.100,296504.000,0.200,40990.000,0.300,1166.000,0.500,445.000,1.000,187.000,5.000,0
"03/08/08","13:02:32",277570.000,"cc",28408.275,6.00,6,0.100,243946.000,0.200,32232.000,0.300,881.000,0.500,351.000,1.000,160.000,5.000,0
"03/08/08","13:02:38",192351.000,"cc",28307.451,6.00,6,0.100,170336.000,0.200,20899.000,0.300,619.000,0.500,354.000,1.000,143.000,5.000,0
"03/08/08","13:02:44",178740.000,"cc",28325.025,6.00,6,0.100,158554.000,0.200,19005.000,0.300,612.000,0.500,387.000,1.000,182.000,5.000,0
"03/08/08","13:02:50",90462.000,"cc",28264.785,6.00,6,0.100,80832.000,0.200,8743.000,0.300,432.000,0.500,338.000,1.000,117.000,5.000,0
"03/08/08","13:02:56",54309.000,"cc",28332.781,6.00,6,0.100,48221.000,0.200,5166.000,0.300,396.000,0.500,357.000,1.000,169.000,5.000,0
"03/08/08","13:03:02",62813.000,"cc",28350.592,6.00,6,0.100,56081.000,0.200,5916.000,0.300,388.000,0.500,300.000,1.000,128.000,5.000,0
"03/08/08","13:03:08",62872.000,"cc",28337.916,6.00,6,0.100,55862.000,0.200,6162.000,0.300,383.000,0.500,322.000,1.000,143.000,5.000,0
"03/08/08","13:03:14",172562.000,"cc",28372.898,6.00,6,0.100,150203.000,0.200,21318.000,0.300,636.000,0.500,291.000,1.000,114.000,5.000,0
"03/08/08","13:03:20",248878.000,"cc",28270.287,6.00,6,0.100,207670.000,0.200,39478.000,0.300,1246.000,0.500,349.000,1.000,135.000,5.000,0
"03/08/08","13:03:26",167476.000,"cc",28264.107,6.00,6,0.100,148795.000,0.200,17436.000,0.300,716.000,0.500,368.000,1.000,161.000,5.000,0
"03/08/08","13:03:32",195344.000,"cc",28318.316,6.00,6,0.100,172857.000,0.200,21197.000,0.300,758.000,0.500,379.000,1.000,153.000,5.000,0
"03/08/08","13:03:38",144743.000,"cc",28344.176,6.00,6,0.100,127965.000,0.200,15656.000,0.300,626.000,0.500,345.000,1.000,151.000,5.000,0
"03/08/08","13:03:44",266755.000,"cc",28312.381,6.00,6,0.100,232744.000,0.200,32564.000,0.300,971.000,0.500,353.000,1.000,123.000,5.000,0
"03/08/08","13:03:50",261161.000,"cc",28303.486,6.00,6,0.100,229242.000,0.200,30515.000,0.300,952.000,0.500,327.000,1.000,125.000,5.000,0
"03/08/08","13:03:56",229118.000,"cc",28322.035,6.00,6,0.100,202093.000,0.200,25717.000,0.300,840.000,0.500,344.000,1.000,124.000,5.000,0
"03/08/08","13:04:02",205883.000,"cc",28377.285,6.00,6,0.100,181702.000,0.200,22714.000,0.300,858.000,0.500,441.000,1.000,168.000,5.000,0
"03/08/08","13:04:08",171732.000,"cc",28340.014,6.00,6,0.100,151818.000,0.200,18575.000,0.300,805.000,0.500,394.000,1.000,140.000,5.000,0
"03/08/08","13:04:14",121240.000,"cc",28318.256,6.00,6,0.100,107799.000,0.200,12257.000,0.300,632.000,0.500,368.000,1.000,184.000,5.000,0
"03/08/08","13:04:20",143248.000,"cc",28266.268,6.00,6,0.100,127387.000,0.200,14743.000,0.300,630.000,0.500,362.000,1.000,126.000,5.000,0
"03/08/08","13:04:26",123724.000,"cc",28324.125,6.00,6,0.100,109979.000,0.200,12631.000,0.300,606.000,0.500,372.000,1.000,136.000,5.000,0
"03/08/08","13:04:32",119155.000,"cc",28363.004,6.00,6,0.100,106007.000,0.200,12003.000,0.300,623.000,0.500,372.000,1.000,150.000,5.000,0
"03/08/08","13:04:38",104197.000,"cc",28267.441,6.00,6,0.100,92460.000,0.200,10633.000,0.300,564.000,0.500,369.000,1.000,171.000,5.000,0
"03/08/08","13:04:44",132594.000,"cc",28272.930,6.00,6,0.100,117760.000,0.200,13764.000,0.300,557.000,0.500,373.000,1.000,140.000,5.000,0
"03/08/08","13:04:50",175808.000,"cc",28341.588,6.00,6,0.100,156094.000,0.200,18510.000,0.300,688.000,0.500,360.000,1.000,156.000,5.000,0
"03/08/08","13:04:56",213795.000,"cc",28329.414,6.00,6,0.100,188476.000,0.200,23859.000,0.300,925.000,0.500,384.000,1.000,151.000,5.000,0
"03/08/08","13:05:02",185563.000,"cc",28369.330,6.00,6,0.100,163998.000,0.200,20118.000,0.300,843.000,0.500,423.000,1.000,181.000,5.000,0
"03/08/08","13:05:08",115876.000,"cc",28292.174,6.00,6,0.100,102391.000,0.200,12082.000,0.300,849.000,0.500,402.000,1.000,152.000,5.000,0
"03/08/08","13:05:14",132517.000,"cc",28308.846,6.00,6,0.100,116941.000,0.200,14089.000,0.300,873.000,0.500,463.000,1.000,151.000,5.000,0
"03/08/08","13:05:20",269141.000,"cc",28291.338,6.00,6,0.100,232192.000,0.200,35146.000,0.300,1287.000,0.500,392.000,1.000,124.000,5.000,0
"03/08/08","13:05:26",314868.000,"cc",28303.209,6.00,6,0.100,259129.000,0.200,53393.000,0.300,1754.000,0.500,447.000,1.000,145.000,5.000,0
"03/08/08","13:05:32",330625.000,"cc",28248.232,6.00,6,0.100,287589.000,0.200,41115.000,0.300,1420.000,0.500,351.000,1.000,150.000,5.000,0
"03/08/08","13:05:38",261238.000,"cc",28273.301,6.00,6,0.100,228943.000,0.200,30549.000,0.300,1228.000,0.500,363.000,1.000,155.000,5.000,0
"03/08/08","13:05:44",183966.000,"cc",28382.104,6.00,6,0.100,161781.000,0.200,20442.000,0.300,1261.000,0.500,354.000,1.000,128.000,5.000,0
"03/08/08","13:05:50",101951.000,"cc",28361.479,6.00,6,0.100,90520.000,0.200,10383.000,0.300,629.000,0.500,309.000,1.000,110.000,5.000,0
"03/08/08","13:05:56",130141.000,"cc",28377.387,6.00,6,0.100,115414.000,0.200,13663.000,0.300,645.000,0.500,294.000,1.000,125.000,5.000,0
"03/08/08","13:06:02",147501.000,"cc",28306.195,6.00,6,0.100,130617.000,0.200,15775.000,0.300,726.000,0.500,283.000,1.000,100.000,5.000,0
"03/08/08","13:06:08",216254.000,"cc",28307.129,6.00,6,0.100,190299.000,0.200,24674.000,0.300,876.000,0.500,284.000,1.000,121.000,5.000,0
"03/08/08","13:06:14",262286.000,"cc",28278.426,6.00,6,0.100,229121.000,0.200,31545.000,0.300,1149.000,0.500,344.000,1.000,127.000,5.000,0
"03/08/08","13:06:20",188622.000,"cc",28276.139,6.00,6,0.100,167233.000,0.200,20220.000,0.300,746.000,0.500,298.000,1.000,125.000,5.000,0
"03/08/08","13:06:26",168466.000,"cc",28367.799,6.00,6,0.100,149452.000,0.200,17901.000,0.300,670.000,0.500,317.000,1.000,126.000,5.000,0
"03/08/08","13:06:32",109890.000,"cc",28316.981,6.00,6,0.100,98031.000,0.200,10932.000,0.300,517.000,0.500,287.000,1.000,123.000,5.000,0
"03/08/08","13:06:38",90907.000,"cc",28290.623,6.00,6,0.100,80813.000,0.200,9136.000,0.300,580.000,0.500,268.000,1.000,110.000,5.000,0
"03/08/08","13:06:44",172253.000,"cc",28332.461,6.00,6,0.100,151567.000,0.200,19385.000,0.300,916.000,0.500,275.000,1.000,110.000,5.000,0
"03/08/08","13:06:50",170623.000,"cc",28312.772,6.00,6,0.100,150528.000,0.200,18963.000,0.300,731.000,0.500,293.000,1.000,108.000,5.000,0
"03/08/08","13:06:56",433082.000,"cc",28348.428,6.00,6,0.100,294126.000,0.200,133963.000,0.300,4403.000,0.500,452.000,1.000,138.000,5.000,0
"03/08/08","13:07:02",389357.000,"cc",28260.816,6.00,6,0.100,302578.000,0.200,83935.000,0.300,2309.000,0.500,406.000,1.000,129.000,5.000,0
"03/08/08","13:07:08",311816.000,"cc",28278.959,6.00,6,0.100,270801.000,0.200,39296.000,0.300,1193.000,0.500,365.000,1.000,161.000,5.000,0
"03/08/08","13:07:14",218918.000,"cc",28273.885,6.00,6,0.100,192757.000,0.200,24660.000,0.300,965.000,0.500,387.000,1.000,149.000,5.000,0
"03/08/08","13:07:20",133018.000,"cc",28365.287,6.00,6,0.100,118103.000,0.200,13917.000,0.300,558.000,0.500,311.000,1.000,129.000,5.000,0
"03/08/08","13:07:26",167764.000,"cc",28363.609,6.00,6,0.100,148313.000,0.200,18126.000,0.300,857.000,0.500,332.000,1.000,136.000,5.000,0
"03/08/08","13:07:32",105721.000,"cc",28327.965,6.00,6,0.100,94004.000,0.200,10725.000,0.300,543.000,0.500,314.000,1.000,135.000,5.000,0
"03/08/08","13:07:38",90640.000,"cc",28238.647,6.00,6,0.100,80734.000,0.200,9037.000,0.300,454.000,0.500,312.000,1.000,103.000,5.000,0
"03/08/08","13:07:44",77341.000,"cc",28341.869,6.00,6,0.100,68530.000,0.200,7891.000,0.300,459.000,0.500,327.000,1.000,134.000,5.000,0
"03/08/08","13:07:50",107974.000,"cc",28297.832,6.00,6,0.100,95855.000,0.200,11114.000,0.300,561.000,0.500,325.000,1.000,119.000,5.000,0
"03/08/08","13:07:56",134251.000,"cc",28307.777,6.00,6,0.100,118889.000,0.200,14276.000,0.300,646.000,0.500,324.000,1.000,116.000,5.000,0
"03/08/08","13:08:02",118839.000,"cc",28330.160,6.00,6,0.100,105219.000,0.200,12346.000,0.300,701.000,0.500,413.000,1.000,160.000,5.000,0
"03/08/08","13:08:08",145872.000,"cc",28347.918,6.00,6,0.100,127970.000,0.200,16479.000,0.300,815.000,0.500,435.000,1.000,173.000,5.000,0
"03/08/08","13:08:14",125551.000,"cc",28288.617,6.00,6,0.100,110348.000,0.200,13805.000,0.300,717.000,0.500,481.000,1.000,200.000,5.000,0
"03/08/08","13:08:20",273918.000,"cc",28299.148,6.00,6,0.100,237032.000,0.200,34853.000,0.300,1316.000,0.500,520.000,1.000,197.000,5.000,0
"03/08/08","13:08:26",175280.000,"cc",28336.830,6.00,6,0.100,153436.000,0.200,20180.000,0.300,952.000,0.500,523.000,1.000,189.000,5.000,0
"03/08/08","13:08:32",231192.000,"cc",28349.986,6.00,6,0.100,201942.000,0.200,27905.000,0.300,878.000,0.500,335.000,1.000,132.000,5.000,0
"03/08/08","13:08:38",175139.000,"cc",28327.838,6.00,6,0.100,154676.000,0.200,19173.000,0.300,816.000,0.500,353.000,1.000,121.000,5.000,0
"03/08/08","13:08:44",133860.000,"cc",28310.342,6.00,6,0.100,118173.000,0.200,14634.000,0.300,603.000,0.500,317.000,1.000,133.000,5.000,0
"03/08/08","13:08:50",103042.000,"cc",28228.994,6.00,6,0.100,91431.000,0.200,10648.000,0.300,521.000,0.500,305.000,1.000,137.000,5.000,0
"03/08/08","13:08:56",39824.000,"cc",28335.848,6.00,6,0.100,34891.000,0.200,4289.000,0.300,293.000,0.500,250.000,1.000,101.000,5.000,0
"03/08/08","13:09:02",65870.000,"cc",28344.770,6.00,6,0.100,58307.000,0.200,6769.000,0.300,389.000,0.500,284.000,1.000,121.000,5.000,0
"03/08/08","13:09:08",233419.000,"cc",28348.113,6.00,6,0.100,204081.000,0.200,27949.000,0.300,938.000,0.500,323.000,1.000,128.000,5.000,0
"03/08/08","13:09:14",184065.000,"cc",28314.926,6.00,6,0.100,162645.000,0.200,20355.000,0.300,664.000,0.500,281.000,1.000,120.000,5.000,0
"03/08/08","13:09:20",211422.000,"cc",28296.500,6.00,6,0.100,186778.000,0.200,23229.000,0.300,895.000,0.500,372.000,1.000,148.000,5.000,0
"03/08/08","13:09:26",292129.000,"cc",28317.025,6.00,6,0.100,255609.000,0.200,34982.000,0.300,1102.000,0.500,324.000,1.000,112.000,5.000,0
"03/08/08","13:09:32",244983.000,"cc",28333.072,6.00,6,0.100,215561.000,0.200,28065.000,0.300,906.000,0.500,333.000,1.000,118.000,5.000,0
"03/08/08","13:09:38",96212.000,"cc",28358.680,6.00,6,0.100,85486.000,0.200,9826.000,0.300,473.000,0.500,305.000,1.000,122.000,5.000,0
"03/08/08","13:09:44",106669.000,"cc",28282.897,6.00,6,0.100,94464.000,0.200,11218.000,0.300,528.000,0.500,335.000,1.000,124.000,5.000,0
"03/08/08","13:09:50",112969.000,"cc",28328.902,6.00,6,0.100,100045.000,0.200,11869.000,0.300,579.000,0.500,344.000,1.000,132.000,5.000,0
"03/08/08","13:09:56",126095.000,"cc",28351.797,6.00,6,0.100,111727.000,0.200,13268.000,0.300,610.000,0.500,356.000,1.000,134.000,5.000,0
"03/08/08","13:10:02",116741.000,"cc",28266.588,6.00,6,0.100,103353.000,0.200,12350.000,0.300,578.000,0.500,328.000,1.000,132.000,5.000,0
"03/08/08","13:10:08",149512.000,"cc",28319.863,6.00,6,0.100,132164.000,0.200,16187.000,0.300,646.000,0.500,359.000,1.000,156.000,5.000,0
"03/08/08","13:10:14",144790.000,"cc",28318.346,6.00,6,0.100,128028.000,0.200,15780.000,0.300,556.000,0.500,284.000,1.000,142.000,5.000,0
"03/08/08","13:10:20",94946.000,"cc",28263.506,6.00,6,0.100,83765.000,0.200,10076.000,0.300,583.000,0.500,367.000,1.000,155.000,5.000,0
"03/08/08","13:10:26",135996.000,"cc",28313.721,6.00,6,0.100,120010.000,0.200,14807.000,0.300,622.000,0.500,412.000,1.000,145.000,5.000,0
"03/08/08","13:10:32",190279.000,"cc",28374.022,6.00,6,0.100,167703.000,0.200,21222.000,0.300,839.000,0.500,365.000,1.000,150.000,5.000,0
"03/08/08","13:10:38",168106.000,"cc",28303.045,6.00,6,0.100,147933.000,0.200,18893.000,0.300,792.000,0.500,354.000,1.000,134.000,5.000,0
"03/08/08","13:10:44",147872.000,"cc",28300.033,6.00,6,0.100,130095.000,0.200,16618.000,0.300,637.000,0.500,363.000,1.000,159.000,5.000,0
"03/08/08","13:10:50",191686.000,"cc",28269.920,6.00,6,0.100,167376.000,0.200,22940.000,0.300,842.000,0.500,391.000,1.000,137.000,5.000,0
"03/08/08","13:10:56",400399.000,"cc",28347.947,6.00,6,0.100,309241.000,0.200,86731.000,0.300,3778.000,0.500,501.000,1.000,148.000,5.000,0
"03/08/08","13:11:02",337436.000,"cc",28304.793,6.00,6,0.100,273299.000,0.200,61709.000,0.300,1897.000,0.500,404.000,1.000,127.000,5.000,0
"03/08/08","13:11:08",276231.000,"cc",28340.916,6.00,6,0.100,239807.000,0.200,34721.000,0.300,1205.000,0.500,375.000,1.000,123.000,5.000,0
"03/08/08","13:11:14",283385.000,"cc",28324.518,6.00,6,0.100,244770.000,0.200,36883.000,0.300,1219.000,0.500,383.000,1.000,130.000,5.000,0
"03/08/08","13:11:20",279388.000,"cc",28362.168,6.00,6,0.100,241571.000,0.200,36133.000,0.300,1192.000,0.500,342.000,1.000,150.000,5.000,0
"03/08/08","13:11:26",255544.000,"cc",28327.350,6.00,6,0.100,223289.000,0.200,30871.000,0.300,957.000,0.500,297.000,1.000,130.000,5.000,0
"03/08/08","13:11:32",236705.000,"cc",28303.004,6.00,6,0.100,208115.000,0.200,27283.000,0.300,865.000,0.500,315.000,1.000,127.000,5.000,0
"03/08/08","13:11:38",168994.000,"cc",28341.709,6.00,6,0.100,149221.000,0.200,18541.000,0.300,690.000,0.500,401.000,1.000,141.000,5.000,0
"03/08/08","13:11:44",198205.000,"cc",28290.201,6.00,6,0.100,174637.000,0.200,22293.000,0.300,754.000,0.500,381.000,1.000,140.000,5.000,0
"03/08/08","13:11:50",96980.000,"cc",28348.836,6.00,6,0.100,85737.000,0.200,10086.000,0.300,615.000,0.500,388.000,1.000,154.000,5.000,0
"03/08/08","13:11:56",62353.000,"cc",28252.787,6.00,6,0.100,54591.000,0.200,6711.000,0.300,510.000,0.500,374.000,1.000,167.000,5.000,0
"03/08/08","13:12:02",77310.000,"cc",28257.574,6.00,6,0.100,67934.000,0.200,8329.000,0.300,539.000,0.500,375.000,1.000,133.000,5.000,0
"03/08/08","13:12:08",119089.000,"cc",28342.217,6.00,6,0.100,105484.000,0.200,12520.000,0.300,587.000,0.500,359.000,1.000,139.000,5.000,0
"03/08/08","13:12:14",187910.000,"cc",28346.719,6.00,6,0.100,165670.000,0.200,20951.000,0.300,749.000,0.500,388.000,1.000,152.000,5.000,0
"03/08/08","13:12:20",210661.000,"cc",28365.469,6.00,6,0.100,185120.000,0.200,24001.000,0.300,914.000,0.500,457.000,1.000,169.000,5.000,0
"03/08/08","13:12:26",303731.000,"cc",28266.215,6.00,6,0.100,245292.000,0.200,56341.000,0.300,1526.000,0.500,403.000,1.000,169.000,5.000,0
"03/08/08","13:12:32",163163.000,"cc",28265.102,6.00,6,0.100,143096.000,0.200,18672.000,0.300,781.000,0.500,439.000,1.000,175.000,5.000,0
"03/08/08","13:12:38",184486.000,"cc",28326.654,6.00,6,0.100,162209.000,0.200,20973.000,0.300,758.000,0.500,408.000,1.000,138.000,5.000,0
"03/08/08","13:12:44",188430.000,"cc",28329.775,6.00,6,0.100,164882.000,0.200,22153.000,0.300,844.000,0.500,402.000,1.000,149.000,5.000,0
"03/08/08","13:12:50",112717.000,"cc",28335.482,6.00,6,0.100,99231.000,0.200,12386.000,0.300,585.000,0.500,360.000,1.000,155.000,5.000,0
"03/08/08","13:12:56",158595.000,"cc",28311.910,6.00,6,0.100,139703.000,0.200,17598.000,0.300,761.000,0.500,396.000,1.000,137.000,5.000,0
"03/08/08","13:13:02",190603.000,"cc",28335.283,6.00,6,0.100,168097.000,0.200,21131.000,0.300,827.000,0.500,376.000,1.000,172.000,5.000,0
"03/08/08","13:13:08",153047.000,"cc",28271.445,6.00,6,0.100,135352.000,0.200,16464.000,0.300,681.000,0.500,391.000,1.000,159.000,5.000,0
"03/08/08","13:13:14",148985.000,"cc",28306.627,6.00,6,0.100,131890.000,0.200,15900.000,0.300,640.000,0.500,401.000,1.000,154.000,5.000,0
"03/08/08","13:13:20",178636.000,"cc",28312.065,6.00,6,0.100,157450.000,0.200,19974.000,0.300,701.000,0.500,370.000,1.000,141.000,5.000,0
"03/08/08","13:13:26",109919.000,"cc",28268.797,6.00,6,0.100,97029.000,0.200,11772.000,0.300,564.000,0.500,380.000,1.000,174.000,5.000,0
"03/08/08","13:13:32",113314.000,"cc",28485.287,6.00,6,0.100,99887.000,0.200,12270.000,0.300,612.000,0.500,376.000,1.000,169.000,5.000,0
"03/08/08","13:13:38",271858.000,"cc",28239.137,6.00,6,0.100,237263.000,0.200,33057.000,0.300,1003.000,0.500,397.000,1.000,138.000,5.000,0
"03/08/08","13:13:44",243838.000,"cc",28290.965,6.00,6,0.100,214084.000,0.200,28377.000,0.300,867.000,0.500,354.000,1.000,156.000,5.000,0
"03/08/08","13:13:50",150076.000,"cc",28319.731,6.00,6,0.100,132543.000,0.200,16350.000,0.300,647.000,0.500,371.000,1.000,165.000,5.000,0
"03/08/08","13:13:56",91020.000,"cc",28315.371,6.00,6,0.100,80207.000,0.200,9725.000,0.300,527.000,0.500,390.000,1.000,171.000,5.000,0
"03/08/08","13:14:02",109253.000,"cc",28335.828,6.00,6,0.100,96637.000,0.200,11557.000,0.300,560.000,0.500,356.000,1.000,143.000,5.000,0
"03/08/08","13:14:08",146735.000,"cc",28310.834,6.00,6,0.100,129489.000,0.200,16219.000,0.300,579.000,0.500,315.000,1.000,133.000,5.000,0
"03/08/08","13:14:14",105195.000,"cc",28311.328,6.00,6,0.100,93145.000,0.200,11058.000,0.300,524.000,0.500,348.000,1.000,120.000,5.000,0
"03/08/08","13:14:20",112557.000,"cc",28339.557,6.00,6,0.100,99397.000,0.200,12119.000,0.300,527.000,0.500,368.000,1.000,146.000,5.000,0
"03/08/08","13:14:26",103670.000,"cc",28292.045,6.00,6,0.100,91791.000,0.200,10919.000,0.300,507.000,0.500,319.000,1.000,134.000,5.000,0
"03/08/08","13:14:32",118128.000,"cc",28348.369,6.00,6,0.100,104774.000,0.200,12291.000,0.300,558.000,0.500,358.000,1.000,147.000,5.000,0
"03/08/08","13:14:38",83959.000,"cc",28293.731,6.00,6,0.100,74231.000,0.200,8784.000,0.300,485.000,0.500,317.000,1.000,141.000,5.000,1.000
"03/08/08","13:14:44",88318.000,"cc",28318.969,6.00,6,0.100,78021.000,0.200,9325.000,0.300,475.000,0.500,325.000,1.000,172.000,5.000,0
"03/08/08","13:14:50",72051.000,"cc",28263.162,6.00,6,0.100,63217.000,0.200,7753.000,0.300,523.000,0.500,381.000,1.000,177.000,5.000,0
"03/08/08","13:14:56",199038.000,"cc",28272.133,6.00,6,0.100,173251.000,0.200,24431.000,0.300,873.000,0.500,346.000,1.000,137.000,5.000,0
"03/08/08","13:15:02",246350.000,"cc",28401.391,6.00,6,0.100,214283.000,0.200,30501.000,0.300,999.000,0.500,392.000,1.000,175.000,5.000,0
"03/08/08","13:15:08",136676.000,"cc",28300.297,6.00,6,0.100,120500.000,0.200,14984.000,0.300,632.000,0.500,396.000,1.000,164.000,5.000,0
"03/08/08","13:15:14",179776.000,"cc",28296.811,6.00,6,0.100,157531.000,0.200,20991.000,0.300,721.000,0.500,371.000,1.000,162.000,5.000,0
"03/08/08","13:15:20",127653.000,"cc",28317.377,6.00,6,0.100,112631.000,0.200,14039.000,0.300,519.000,0.500,324.000,1.000,140.000,5.000,0
"03/08/08","13:15:26",86440.000,"cc",28248.803,6.00,6,0.100,76190.000,0.200,9232.000,0.300,490.000,0.500,385.000,1.000,143.000,5.000,0
"03/08/08","13:15:32",74321.000,"cc",28310.867,6.00,6,0.100,65035.000,0.200,8308.000,0.300,484.000,0.500,357.000,1.000,137.000,5.000,0
"03/08/08","13:15:38",85342.000,"cc",28360.475,6.00,6,0.100,74621.000,0.200,9589.000,0.300,578.000,0.500,397.000,1.000,157.000,5.000,0
"03/08/08","13:15:44",205007.000,"cc",28302.465,6.00,6,0.100,179128.000,0.200,24369.000,0.300,968.000,0.500,388.000,1.000,154.000,5.000,0
"03/08/08","13:15:50",227820.000,"cc",28322.115,6.00,6,0.100,197565.000,0.200,28522.000,0.300,1154.000,0.500,410.000,1.000,169.000,5.000,0
"03/08/08","13:15:56",207963.000,"cc",28347.197,6.00,6,0.100,181501.000,0.200,24890.000,0.300,995.000,0.500,417.000,1.000,160.000,5.000,0
"03/08/08","13:16:02",183069.000,"cc",28331.856,6.00,6,0.100,160631.000,0.200,20801.000,0.300,1006.000,0.500,444.000,1.000,187.000,5.000,0
"03/08/08","13:16:08",181966.000,"cc",28323.436,6.00,6,0.100,159749.000,0.200,20708.000,0.300,962.000,0.500,383.000,1.000,164.000,5.000,0
"03/08/08","13:16:14",103678.000,"cc",28328.481,6.00,6,0.100,91200.000,0.200,11483.000,0.300,540.000,0.500,332.000,1.000,123.000,5.000,0
"03/08/08","13:16:20",168677.000,"cc",28328.922,6.00,6,0.100,147924.000,0.200,19270.000,0.300,880.000,0.500,418.000,1.000,185.000,5.000,0